星链-36376(STARLINK-36376)

导读

STARLINK-36376是美国SpaceX公司星链(Starlink)星座的成员卫星,于2026年1月29日发射入轨。星链项目旨在低地球轨道构建全球宽带互联网星座,为基础设施匮乏地区提供高速、低延迟的互联网接入服务。该卫星入轨后将助力星链网络扩展,进一步提升全球覆盖能力与服务性能,推动全球互联基础设施建设。

基本信息
目录编号:
67590
目录名称:
STARLINK-36376
国际标识:
2026-018B
轨道中心:
EARTH
卫星名称:
星链-36376
卫星全名:
星链-36376(STARLINK-36376)
卫星状态:
在轨 (已飞行135 天)
发射日期:
2026-01-29 UTC
国别 :
美国 (US)
星等 :
--
轨道信息
数据来源 国际轨道数据
星历时间: 2026-06-13T02:02:57+0800
10小时前
查看轨道信息
半长轴: 6843.664km
偏心率: 0.0000479
轨道倾角: 97.285°
近地点辐角 173.979°
升交点赤经 228.626°
平近点角 186.145°
近地点: 465.199km
远地点: 465.855km
周期: 93.906分钟
每日圈数: 15.334505
详细信息
固有亮度:
5
最大亮度:
2.5
卫星平台:
Starlink V1.0
覆盖范围:
全球
运营商:
太空探索技术公司
运营商所在国:
美国
制造商(研发单位):
太空探索技术公司
制造商所在国:
美国
使用方式:
暂无
卫星简介
Starlink 计划是 SpaceX 推出的全球卫星互联网项目,通过发射低轨道卫星,为全球尤其是偏远地区提供高速、低延迟的互联网服务。自 2019 年起,Starlink 已部署数千颗卫星,旨在缩小全球数字鸿沟,推动互联网普及。该项目还为军事、航空等行业提供通信支持,带来广泛经济效益。
2D轨道图
3D轨道图
轨道高度分析图
轨道倾角分析图
轨道综合分析图
查看轨道综合分析图